Regional Weather Roundup
Issued by NWS Little Rock, AR

Home | Current Version | Previous Version | Graphics & Text | Print | Product List | Glossary On
Versions: 1 2 3 4 5 6 7 8 9 10 11 12 13 14 15 16 17 18 19 20 21 22 23 24 25 26 27 28 29 30 31 32 33 34 35 36 37 38 39 40 41 42 43 44 45 46 47 48 49 50
000
ASUS44 KLZK 301205
RWRLZK

WEATHER ROUNDUP FOR ARKANSAS
NATIONAL WEATHER SERVICE LITTLE ROCK AR
700 AM CDT WED JUL 30 2014

NOTE: "FAIR" INDICATES FEW OR NO CLOUDS BELOW 12,000 FEET WITH NO
SIGNIFICANT WEATHER AND/OR OBSTRUCTIONS TO VISIBILITY.

ARZ001-003-010-029-301300-
NORTHWEST ARKANSAS

CITY           SKY/WX    TMP DP  RH WIND       PRES   REMARKS
FAYETTEVILLE   MOCLDY    65  63  93 E3        30.10S
6HR MIN TEMP:  62; 6HR MAX TEMP:  65;

FORT SMITH     CLOUDY    73  67  81 E7        30.07R
6HR MIN TEMP:  72; 6HR MAX TEMP:  74;

HARRISON       CLOUDY    66  64  93 S3        30.11R
6HR MIN TEMP:  64; 6HR MAX TEMP:  67;

BENTONVILLE    CLOUDY    70  63  78 E3        30.11S
6HR MIN TEMP:  66; 6HR MAX TEMP:  70;

ROGERS         CLOUDY    69  66  90 NE5       30.11S
6HR MIN TEMP:  66; 6HR MAX TEMP:  69; 6HR PCP: TRACE;

SILOAM SPGS    CLOUDY    66  57  72 CALM      30.11R
6HR MIN TEMP:  66; 6HR MAX TEMP:  66;

HIGHFILL       MOCLDY    67  64  90 NE3       30.09S
6HR MIN TEMP:  64; 6HR MAX TEMP:  69;

SPRINGDALE     MOCLDY    66  64  94 SE3       30.11S
$$

ARZ004-005-016-301300-
NORTH CENTRAL ARKANSAS

CITY           SKY/WX    TMP DP  RH WIND       PRES   REMARKS
BATESVILLE     PTCLDY    66  57  72 S3        30.10S
6HR MIN TEMP:  66; 6HR MAX TEMP:  68;

FLIPPIN        PTCLDY    64  61  88 CALM      30.10S
6HR MIN TEMP:  63; 6HR MAX TEMP:  66;

MTN HOME       MOCLDY    64  60  87 S3        30.09S
6HR MIN TEMP:  62; 6HR MAX TEMP:  66;

$$

ARZ040-041-301300-
WEST CENTRAL ARKANSAS

CITY           SKY/WX    TMP DP  RH WIND       PRES   REMARKS
MENA           CLOUDY    70  70 100 CALM      30.13R
MOUNT IDA      CLOUDY    68  66  93 CALM      30.09S
6HR MIN TEMP:  67; 6HR MAX TEMP:  68; 6HR PCP: TRACE;

$$

ARZ009-017-025-026-028-301300-
NORTHEAST ARKANSAS

CITY           SKY/WX    TMP DP  RH WIND       PRES   REMARKS
CORNING        FAIR      63  63 100 CALM      30.11S
JONESBORO      CLEAR     61  58  90 CALM      30.11R
6HR MIN TEMP:  59; 6HR MAX TEMP:  62;

NEWPORT        CLEAR     66  62  87 VRB3      30.12R
6HR MIN TEMP:  63; 6HR MAX TEMP:  67;

WALNUT RIDGE   PTCLDY    64  61  88 SE3       30.10R
6HR MIN TEMP:  64; 6HR MAX TEMP:  66;

BLYTHEVILLE    CLEAR     62  59  90 SW5       30.11R
6HR MIN TEMP:  59; 6HR MAX TEMP:  65;

$$

ARZ022-023-033-042-044-301300-
CENTRAL ARKANSAS

CITY           SKY/WX    TMP DP  RH WIND       PRES   REMARKS
LITTLE ROCK    MOCLDY    67  62  84 CALM      30.11S
6HR MIN TEMP:  66; 6HR MAX TEMP:  71;

N LITTLE ROCK    N/A     67  63  86 SW3       30.11S
6HR MIN TEMP:  67; 6HR MAX TEMP:  71;

JACKSONVILLE   PTCLDY    64  62  94 CALM      30.11S
6HR MIN TEMP:  63; 6HR MAX TEMP:  67;

SEARCY         PTCLDY    65  63  93 CALM      30.12R
6HR MIN TEMP:  62; 6HR MAX TEMP:  65;

HOT SPRINGS    LGT RAIN  69  62  78 E5        30.11S
6HR MIN TEMP:  68; 6HR MAX TEMP:  72; 6HR PCP: TRACE;

RUSSELLVILLE   MOCLDY    69  63  81 CALM      30.09S
6HR MIN TEMP:  67; 6HR MAX TEMP:  69;

CLINTON        MOCLDY    64  63  94 CALM      30.12S
$$

ARZ036-301300-
EAST ARKANSAS

CITY           SKY/WX    TMP DP  RH WIND       PRES   REMARKS
WEST MEMPHIS   CLEAR     62  61  96 CALM      30.10R
6HR MIN TEMP:  60; 6HR MAX TEMP:  63;

$$

ARZ050-053-066-070-073-301300-
SOUTHWEST ARKANSAS

CITY           SKY/WX    TMP DP  RH WIND       PRES   REMARKS
ARKADELPHIA    FAIR      69  67  93 CALM      30.11S
6HR MIN TEMP:  67; 6HR MAX TEMP:  70;

CAMDEN         MOCLDY    64  61  88 CALM      30.11S
TEXARKANA      MOCLDY    71  62  73 S7        30.10R
6HR MIN TEMP:  70; 6HR MAX TEMP:  73;

EL DORADO      CLEAR     64  62  93 CALM      30.11S
6HR MIN TEMP:  63; 6HR MAX TEMP:  69;

DE QUEEN       MOCLDY    70  67  90 CALM      30.08S
6HR MIN TEMP:  70; 6HR MAX TEMP:  71;

$$

ARZ056-057-069-301300-
SOUTHEAST ARKANSAS

CITY           SKY/WX    TMP DP  RH WIND       PRES   REMARKS
PINE BLUFF     CLEAR     63  61  93 CALM      30.12R
6HR MIN TEMP:  63; 6HR MAX TEMP:  68;

STUTTGART      PTCLDY    68  59  73 S5        30.11S
6HR MIN TEMP:  66; 6HR MAX TEMP:  70;

MONTICELLO     CLEAR     64  60  87 CALM      30.11R
6HR MIN TEMP:  63; 6HR MAX TEMP:  68;


$$




USA.gov is the U.S. government's official web portal to all federal, state and local government web resources and services.